DW5499 Weather Reports


Display with metric or nautical units.
time (UTC)temp
F
wind
direction
speed
MPH
gust
MPH
rain 1hr
in
rain 24hr
in
rain mn
in
humidity
%
barometer
mb
20260507194528 66 173 9.0 22.0 0.00 0.00 0.00 47 1012.9
20260507193024 65 180 10.0 22.0 0.00 0.00 0.00 48 1013.2
20260507191522 65 193 10.0 24.0 0.00 0.00 0.00 49 1013.4
20260507190027 65 220 14.0 19.0 0.00 0.00 0.00 48 1013.4
20260507184520 64 205 9.0 22.0 0.00 0.00 0.00 49 1013.6
20260507183022 64 193 7.0 24.0 0.00 0.00 0.00 50 1013.7
20260507181514 64 232 9.0 22.0 0.00 0.00 0.00 50 1014.0
20260507180014 64 217 10.0 22.0 0.00 0.00 0.00 50 1014.4
20260507174510 63 219 9.0 16.0 0.00 0.00 0.00 50 1014.6
20260507173007 62 207 12.0 20.0 0.00 0.00 0.00 51 1015.0
20260507171506 62 286 9.0 21.0 0.00 0.00 0.00 52 1015.0
20260507170003 61 248 9.0 18.0 0.00 0.00 0.00 52 1015.4
20260507164603 61 228 10.0 22.0 0.00 0.00 0.00 53 1015.6
20260507163058 61 233 12.0 23.0 0.00 0.00 0.00 54 1015.9
20260507161559 60 223 12.0 23.0 0.00 0.00 0.00 53 1016.1
20260507160053 59 245 14.0 21.0 0.00 0.00 0.00 55 1016.1
20260507154551 59 245 11.0 24.0 0.00 0.00 0.00 55 1016.2
20260507153054 58 216 11.0 23.0 0.00 0.00 0.00 57 1016.3
20260507151548 58 201 6.0 19.0 0.00 0.00 0.00 58 1016.4
20260507150045 57 207 11.0 16.0 0.00 0.00 0.00 60 1016.6
20260507144542 56 213 9.0 18.0 0.00 0.00 0.00 61 1016.7
20260507143042 56 230 9.0 21.0 0.00 0.00 0.00 62 1016.9
20260507141538 55 174 6.0 13.0 0.00 0.00 0.00 64 1016.7
20260507140042 54 237 4.0 12.0 0.00 0.00 0.00 66 1016.9
20260507134531 53 207 6.0 14.0 0.00 0.00 0.00 69 1016.9
20260507133031 52 231 5.0 15.0 0.00 0.00 0.00 70 1016.9
20260507131536 51 188 5.0 14.0 0.00 0.00 0.00 70 1016.9
20260507130028 50 209 6.0 13.0 0.00 0.00 0.00 71 1017.0
20260507124531 50 198 6.0 12.0 0.00 0.00 0.00 73 1017.2
20260507123028 49 215 4.0 14.0 0.00 0.00 0.00 74 1017.3
20260507121526 47 230 4.0 11.0 0.00 0.00 0.00 76 1017.3
20260507120024 46 176 2.0 6.0 0.00 0.00 0.00 77 1017.2
20260507114523 46 185 1.0 4.0 0.00 0.00 0.00 77 1017.2
20260507113023 45 204 0.0 4.0 0.00 0.00 0.00 77 1017.2
20260507111521 45 148 5.0 11.0 0.00 0.00 0.00 76 1017.1
20260507110019 46 172 0.0 5.0 0.00 0.00 0.00 75 1017.1
20260507104524 46 170 0.0 3.0 0.00 0.00 0.00 73 1017.1
20260507103015 46 192 0.0 3.0 0.00 0.00 0.00 72 1017.1
20260507101512 46 187 0.0 5.0 0.00 0.00 0.00 71 1017.3
20260507100025 47 201 0.0 2.0 0.00 0.00 0.00 70 1017.4
20260507094508 47 229 1.0 3.0 0.00 0.00 0.00 69 1017.4
20260507093005 48 196 0.0 3.0 0.00 0.00 0.00 67 1017.4
20260507091512 48 248 1.0 4.0 0.00 0.00 0.00 66 1017.5
20260507090002 49 257 0.0 4.0 0.00 0.00 0.00 65 1017.5
20260507084601 49 256 1.0 5.0 0.00 0.00 0.00 64 1017.5
20260507083105 49 214 1.0 5.0 0.00 0.00 0.00 63 1017.6
20260507081600 49 226 0.0 5.0 0.00 0.00 0.00 63 1017.7
20260507080056 49 232 0.0 5.0 0.00 0.00 0.00 61 1017.7
20260507074554 50 255 1.0 6.0 0.00 0.00 0.00 59 1017.7
20260507073102 51 257 2.0 5.0 0.00 0.00 0.00 57 1017.7
20260507071556 51 305 1.0 7.0 0.00 0.00 0.00 56 1017.8
20260507070135 51 229 2.0 6.0 0.00 0.00 0.00 54 1018.1
20260507064551 52 234 2.0 7.0 0.00 0.00 0.00 53 1018.2
20260507063048 52 207 3.0 7.0 0.00 0.00 0.00 52 1018.3
20260507061548 53 257 3.0 8.0 0.00 0.00 0.00 50 1018.4
20260507060052 53 254 4.0 9.0 0.00 0.00 0.00 49 1018.4
20260507054551 52 218 3.0 5.0 0.00 0.01 0.00 50 1018.4
20260507053043 51 228 1.0 4.0 0.00 0.01 0.00 53 1018.5
20260507051538 50 181 0.0 2.0 0.00 0.01 0.00 62 1018.4
20260507050035 49 205 0.0 0.0 0.00 0.01 0.00 67 1018.4
20260507044544 49 205 0.0 0.0 0.00 0.01 0.01 69 1018.5
20260507043039 49 205 0.0 0.0 0.00 0.01 0.01 69 1018.6
20260507041533 49 205 0.0 1.0 0.00 0.01 0.01 71 1018.5
20260507040032 49 241 0.0 0.0 0.00 0.01 0.01 64 1018.6
20260507034533 49 241 0.0 0.0 0.00 0.01 0.01 65 1018.7
20260507033031 48 241 0.0 0.0 0.00 0.01 0.01 65 1018.8
20260507031531 49 241 0.0 0.0 0.00 0.01 0.01 64 1018.6
20260507030035 49 241 0.0 2.0 0.00 0.01 0.01 62 1018.7
20260507024531 50 241 0.0 2.0 0.00 0.01 0.01 59 1018.5
20260507023029 51 240 0.0 2.0 0.00 0.01 0.01 56 1018.4
20260507021529 52 240 0.0 3.0 0.00 0.01 0.01 54 1018.3
20260507020032 53 257 1.0 3.0 0.00 0.01 0.01 50 1018.2
20260507014528 55 257 1.0 3.0 0.00 0.01 0.01 45 1018.1
20260507013028 56 261 0.0 3.0 0.00 0.01 0.01 40 1018.0
20260507011531 57 292 0.0 2.0 0.00 0.01 0.01 36 1018.0
20260507010027 59 288 0.0 2.0 0.00 0.01 0.01 34 1017.8
20260507004526 59 257 1.0 5.0 0.00 0.01 0.01 33 1017.9
20260507003026 59 269 2.0 8.0 0.00 0.01 0.01 33 1017.9
20260507001526 60 269 3.0 6.0 0.00 0.01 0.01 31 1017.9
20260507000028 60 326 3.0 10.0 0.00 0.01 0.01 32 1017.8
20260506234524 60 299 3.0 10.0 0.00 0.01 0.01 32 1018.1
20260506233024 60 335 1.0 8.0 0.00 0.01 0.01 32 1017.9
20260506231524 60 345 5.0 9.0 0.00 0.01 0.01 31 1018.0
20260506230023 60 360 2.0 12.0 0.00 0.01 0.01 32 1018.0
20260506224523 59 325 2.0 11.0 0.00 0.01 0.01 32 1017.9
20260506223022 60 253 4.0 15.0 0.00 0.01 0.01 31 1018.0
20260506221524 60 340 2.0 12.0 0.00 0.01 0.01 32 1018.1
20260506220028 60 324 4.0 11.0 0.00 0.01 0.01 32 1018.2
20260506214521 60 262 3.0 9.0 0.00 0.01 0.01 32 1018.2
20260506213020 60 320 5.0 9.0 0.00 0.01 0.01 32 1018.5
20260506211519 60 345 5.0 13.0 0.00 0.01 0.01 32 1018.7
20260506210020 60 272 5.0 13.0 0.00 0.01 0.01 32 1018.9
20260506204523 60 282 6.0 13.0 0.00 0.01 0.01 33 1019.1
20260506203016 60 300 5.0 12.0 0.00 0.01 0.01 34 1019.5
20260506201515 59 290 5.0 12.0 0.00 0.01 0.01 33 1019.5
20260506200023 59 301 7.0 12.0 0.00 0.01 0.01 34 1019.5